This demonstration page uses our WeatherBlox Daily Observations layout. Learn more.

40.92945, -100.16068

Hourly Observations for August 21, 2019

Temp ( °F °C ) Dew Point ( °F °C ) Humidity (%) Winds ( mph kmh ) Pressure ( in mb ) Visibility ( mi km ) Precip ( " mm )
12:15 am 00:15 Partly Cloudy 75 24 74 23.2 95 95 E 7 11 29.91 1013 7 11.265408 0 0
12:35 am 00:35 Mostly Cloudy 75 24 74 23.5 97 97 ENE 7 11 29.91 1013 7 11.265408 0 0
12:55 am 00:55 Cloudy with Thunderstorms 75 24 74 23.5 97 97 E 8 13 29.88 1012 7 11.265408 0 0
1:15 am 01:15 Cloudy with Thunderstorms 75 23.9 74 23.5 98 98 SE 10 17 29.83 1010 7 11.265408 0 0
1:35 am 01:35 Cloudy with Nearby Thunderstorms 75 24 74 23.6 98 98 NNE 10 17 29.88 1012 5 8.04672 0 0
1:55 am 01:55 Cloudy with Nearby Thunderstorms 75 23.9 74 23.5 98 98 NE 10 17 29.88 1012 7 11.265408 0 0
2:15 am 02:15 Cloudy with Nearby Thunderstorms 75 24 74 23.2 95 95 NE 15 24 29.88 1012 7 11.265408 0 0
2:35 am 02:35 Cloudy 69 20.6 59 15.1 71 71 ENE 25 41 29.91 1013 10 16.09344 0 0
2:55 am 02:55 Partly Cloudy with Nearby Thunderstorms 68 20.1 58 14.7 71 71 E 20 31 29.91 1013 10 16.09344 0 0
3:15 am 03:15 Partly Cloudy 67 19.3 60 15.4 78 78 E 10 17 29.94 1014 10 16.09344 0 0
3:35 am 03:35 Partly Cloudy 67 19.4 61 16.2 82 82 E 6 9 29.94 1014 10 16.09344 0 0
3:55 am 03:55 Clear with Nearby Thunderstorms 67 19.4 62 16.7 84 84 SSW 5 7 29.94 1014 10 16.09344 0 0
4:15 am 04:15 Clear with Light Rain 67 19.5 63 17 86 86 SE 3 6 29.94 1014 10 16.09344 0 0
4:35 am 04:35 Partly Cloudy with Light Thunderstorms 67 19.2 64 17.6 91 91 WNW 3 6 29.97 1015 10 16.09344 0 0
4:55 am 04:55 Partly Cloudy with Light Rain 65 18.5 63 17 91 91 NW 16 26 30.03 1017 10 16.09344 0.01 0.254
5:15 am 05:15 Mostly Cloudy with Rain 67 19.3 64 17.8 91 91 NW 12 19 30.06 1018 10 16.09344 0.01 0.254
5:35 am 05:35 Cloudy with Light Rain 66 18.9 64 18 95 95 NW 10 17 30.06 1018 10 16.09344 0.02 0.508
5:55 am 05:55 Cloudy 66 19 64 18 94 94 Calm 30.06 1018 10 16.09344 0.02 0.508
6:15 am 06:15 Cloudy with Rain 66 18.8 65 18.1 96 96 ENE 7 11 30.03 1017 10 16.09344 0 0
6:35 am 06:35 Mostly Cloudy 66 19 64 18 94 94 NE 10 17 30 1016 10 16.09344 0.03 0.762
6:55 am 06:55 Partly Cloudy with Light Rain 66 19 64 18 94 94 NE 12 19 30 1016 10 16.09344 0.04 1.016
7:15 am 07:15 Mostly Cloudy with Light Rain 66 19.1 64 18 93 93 ENE 15 24 30.03 1017 10 16.09344 0.01 0.254
7:35 am 07:35 Mostly Cloudy 66 19 65 18.1 95 95 ENE 10 17 30.03 1017 10 16.09344 0.01 0.254
7:55 am 07:55 Cloudy with Light Rain 66 18.7 65 18.1 96 96 E 24 39 29.97 1015 5 8.04672 0.12 3.048
8:15 am 08:15 Partly Cloudy 66 19 65 18.2 95 95 E 23 37 29.97 1015 10 16.09344 0 0
8:35 am 08:35 Sunny with Nearby Thunderstorms 67 19.3 65 18.1 93 93 ESE 20 31 29.94 1014 10 16.09344 0 0
8:55 am 08:55 Partly Cloudy 68 19.8 65 18.3 91 91 S 5 7 29.97 1015 10 16.09344 0 0
9:15 am 09:15 Partly Cloudy 69 20.3 65 18.2 88 88 N 7 11 30 1016 10 16.09344 0 0
9:35 am 09:35 Mostly Cloudy 70 20.9 65 18.1 84 84 N 6 9 29.97 1015 10 16.09344 0 0
9:55 am 09:55 Cloudy 70 21 65 18.3 85 85 Calm 29.97 1015 10 16.09344 0 0
10:15 am 10:15 Mostly Cloudy 71 21.7 65 18.4 82 82 SSE 8 13 29.97 1015 10 16.09344 0 0
10:35 am 10:35 Partly Cloudy 72 22.2 66 19 82 82 ESE 9 15 29.97 1015 10 16.09344 0 0
10:55 am 10:55 Cloudy 70 21.3 66 18.8 86 86 E 7 11 30 1016 10 16.09344 0 0
11:15 am 11:15 Cloudy 70 21.1 66 19 88 88 ENE 8 13 30 1016 10 16.09344 0 0
11:35 am 11:35 Cloudy 71 21.5 66 19.1 86 86 E 5 7 30 1016 10 16.09344 0 0
11:55 am 11:55 Cloudy 71 21.7 67 19.5 87 87 ENE 7 11 30 1016 10 16.09344 0 0
12:15 pm 12:15 Cloudy 71 21.5 67 19.3 87 87 ENE 6 9 30 1016 10 16.09344 0 0
12:35 pm 12:35 Cloudy 71 21.5 67 19.3 87 87 ENE 5 7 30 1016 10 16.09344 0 0
12:55 pm 12:55 Cloudy 71 21.4 67 19.5 89 89 NE 10 17 30 1016 10 16.09344 0 0
1:15 pm 13:15 Cloudy 71 21.4 66 19.1 87 87 ENE 9 15 30 1016 10 16.09344 0 0
1:35 pm 13:35 Cloudy 73 22.8 67 19.5 82 82 ENE 9 15 29.97 1015 10 16.09344 0 0
1:55 pm 13:55 Mostly Cloudy 73 22.7 67 19.2 81 81 ENE 6 9 29.97 1015 10 16.09344 0 0
2:15 pm 14:15 Mostly Cloudy 74 23.5 68 19.9 80 80 ENE 6 9 29.97 1015 10 16.09344 0 0
2:35 pm 14:35 Cloudy 76 24.5 69 20.7 79 79 NE 9 15 29.94 1014 10 16.09344 0 0
2:55 pm 14:55 Cloudy 74 23.2 68 20 82 82 ENE 10 17 29.97 1015 10 16.09344 0 0
3:15 pm 15:15 Cloudy 74 23.5 68 20.1 81 81 ENE 13 20 29.97 1015 10 16.09344 0 0
3:35 pm 15:35 Cloudy 73 23 68 19.9 83 83 ENE 10 17 29.97 1015 10 16.09344 0 0
3:55 pm 15:55 Mostly Cloudy 74 23.3 68 19.8 81 81 NE 9 15 29.97 1015 10 16.09344 0 0
4:15 pm 16:15 Partly Cloudy 75 23.8 68 20.1 80 80 ENE 9 15 29.97 1015 10 16.09344 0 0
4:35 pm 16:35 Mostly Cloudy 75 24.1 68 19.9 77 77 ENE 9 15 29.91 1013 10 16.09344 0 0
4:55 pm 16:55 Mostly Cloudy 74 23.1 67 19.4 80 80 E 13 20 29.97 1015 10 16.09344 0 0
5:15 pm 17:15 Partly Cloudy 75 24 67 19.4 76 76 ENE 10 17 29.91 1013 10 16.09344 0 0
5:35 pm 17:35 Partly Cloudy 75 24 66 19.1 74 74 ENE 10 17 29.91 1013 10 16.09344 0 0
5:55 pm 17:55 Partly Cloudy 76 24.2 66 19.1 73 73 E 12 19 29.91 1013 10 16.09344 0 0
6:15 pm 18:15 Partly Cloudy 74 23.2 66 18.7 76 76 ENE 10 17 29.94 1014 10 16.09344 0 0
6:35 pm 18:35 Partly Cloudy 74 23.2 66 18.8 76 76 E 16 26 29.94 1014 10 16.09344 0 0
6:55 pm 18:55 Partly Cloudy 73 22.8 66 18.7 78 78 ENE 13 20 29.94 1014 10 16.09344 0 0
7:15 pm 19:15 Partly Cloudy 71 21.8 65 18.4 81 81 E 10 17 29.94 1014 10 16.09344 0 0
7:35 pm 19:35 Partly Cloudy 70 21.2 64 18 82 82 E 10 17 29.94 1014 10 16.09344 0 0
7:55 pm 19:55 Sunny 69 20.7 64 18 85 85 E 10 17 29.94 1014 10 16.09344 0 0
8:15 pm 20:15 Sunny 69 20.3 64 18 87 87 E 9 15 29.94 1014 10 16.09344 0 0
8:35 pm 20:35 Clear 68 19.8 64 18 89 89 E 8 13 29.97 1015 10 16.09344 0 0
8:55 pm 20:55 Clear 66 19.1 64 17.9 93 93 E 6 9 29.97 1015 10 16.09344 0 0
9:15 pm 21:15 Clear 65 18.5 64 17.8 96 96 E 5 7 30 1016 10 16.09344 0 0
9:35 pm 21:35 Clear 65 18.5 64 17.8 96 96 E 5 7 30 1016 10 16.09344 0 0
9:55 pm 21:55 Clear 65 18.2 64 17.7 97 97 E 5 7 30 1016 10 16.09344 0 0
10:15 pm 22:15 Clear 65 18.1 64 17.7 98 98 E 5 7 30 1016 10 16.09344 0 0
10:35 pm 22:35 Clear 65 18.1 64 17.8 98 98 E 6 9 30 1016 10 16.09344 0 0
10:55 pm 22:55 Clear 64 18 64 17.7 98 98 ESE 6 9 30 1016 10 16.09344 0 0
11:15 pm 23:15 Clear 64 18 64 17.7 98 98 ESE 5 7 30.03 1017 10 16.09344 0 0
11:35 pm 23:35 Clear 64 17.8 64 17.6 99 99 ESE 5 7 30.03 1017 10 16.09344 0 0
11:55 pm 23:55 Clear 64 17.7 64 17.6 99 99 E 5 7 30.03 1017 7 11.265408 0 0

Powered by AerisWeather